Flag for Germany Weather past 2 weeks in Greifswald, Mecklenburg-Western Pomerania, Germany

Now
59 °F

Overcast.


Feels Like: 59 °F
Forecast: 56 / 66 °F
Wind: 5 mph from Southwest

Location: Greifswald

Current Time: Jul 28, 2015 at 4:31:52 AM

Latest Report: Jul 28, 2015 at 4:00 AM


Visibility: 14 mi

Pressure: 29.50 "Hg

Humidity: 91%

Dew point: 57 °F

Location of GreifswaldLocation

Historic Weather in Greifswald — Graph

°F

Greifswald temperature yesterday

Maximum temperature yesterday: 67 °F (at 4:00 PM)
Minimum temperature yesterday: 53 °F (at 3:00 AM)
Average temperature yesterday: 60 °F

Past Weeks' High & Low Weather Summary

 TemperatureHumidityPressure
High80 °F (Jul 22, 4:00 PM)97% (Jul 18, 3:00 AM)30.11 "Hg (Jul 18, 3:00 AM)
Low51 °F (Jul 24, 5:00 AM)40% (Jul 26, 3:00 PM)29.44 "Hg (Jul 25, 6:00 PM)
Average63 °F72%29.88 "Hg
* Reported Jul 13 3:00 AM — Jul 28 3:00 AM, Greifswald, Weather by CustomWeather, © 2015

Note: Actual official high and low records may vary slightly from our data, if they occured in-between our weather recording intervals... More about our weather records

Advertising

Greifswald weather history for previous 24 hours

 ConditionsComfort  
Time TempWeatherWind HumidityBarometerVisibility
3:00 AM
Tue, Jul 28
59 °FOvercast.3 mph94%29.50 "Hg11 mi
2:00 AM60 °FOvercast.3 mph93%29.50 "Hg12 mi
1:00 AM60 °FOvercast.3 mph93%29.50 "Hg13 mi
10:00 PM
Mon, Jul 27
60 °FPassing clouds.2 mph94%29.53 "Hg16 mi
9:00 PM62 °FOvercast.2 mph83%29.53 "Hg34 mi
8:00 PM66 °FPartly sunny.3 mph72%29.50 "Hg34 mi
7:00 PM66 °FOvercast.2 mph68%29.50 "Hg34 mi
6:00 PM66 °FPartly sunny.3 mph66%29.53 "Hg31 mi
5:00 PM67 °FOvercast.3 mph63%29.54 "Hg28 mi
4:00 PM67 °FOvercast.3 mph59%29.54 "Hg25 mi
3:00 PM66 °FOvercast.5 mph59%29.54 "Hg25 mi
2:00 PM64 °FOvercast.5 mph65%29.56 "Hg25 mi
1:00 PM63 °FOvercast.5 mph77%29.57 "Hg19 mi
12:00 PM60 °FLight rain. Overcast.3 mph76%29.60 "Hg12 mi
10:00 AM57 °FOvercast.3 mph81%29.63 "Hg22 mi
9:00 AM55 °FOvercast.3 mph83%29.64 "Hg19 mi
8:00 AM55 °FLight rain. Overcast.2 mph81%29.66 "Hg16 mi
7:00 AM55 °FLight rain. Overcast.2 mph79%29.68 "Hg19 mi
4:00 AM54 °FOvercast.2 mph79%29.70 "Hg25 mi
Weather by CustomWeather, © 2015

See weather overviewHow to use our weather pages